Regional Weather Roundup
Issued by NWS

Home | Current Version | Previous Version | Text Only | Print | Product List | Glossary On
Versions: 1 2 3 4 5 6 7 8 9 10 11 12 13 14 15 16 17 18 19 20 21 22 23 24 25 26 27 28 29 30 31 32 33 34 35 36 37 38 39 40 41 42 43 44 45 46 47 48 49 50
000
ASUS45 KCYS 281410
RWRWY

WYOMING REGIONAL WEATHER ROUNDUP
NATIONAL WEATHER SERVICE CHEYENNE WY
800 AM MDT SAT MAR 28 2015

NOTE:  "FAIR" INDICATES FEW OR NO CLOUDS BELOW 12,000 FEET
WITH NO SIGNIFICANT WEATHER AND/OR OBSTRUCTIONS TO VISIBILITY.

WYZ001-281500-
YELLOWSTONE NATIONAL PARK

CITY           SKY/WX    TMP DP  RH WIND       PRES   REMARKS
LK YELLOWSTONE   N/A     25  22  88 CALM      30.12F
W YELLOWSTONE  NOT AVBL

$$
WYZ002>013-054>058-071-098>099-281500-
NORTHERN WYOMING

CITY           SKY/WX    TMP DP  RH WIND       PRES   REMARKS
JACKSON        NOT AVBL
CODY           FAIR      57  30  35 S9        29.94F
GREYBULL       FAIR      39  30  70 CALM      29.93F
WORLAND        FAIR      41  31  67 S5        29.94F
SHERIDAN       FAIR      56  33  42 E3        29.86F
BUFFALO        FAIR      55  30  38 SW6       29.92F
GILLETTE       FAIR      50  33  52 S5        29.91S
HULETT         FAIR      45  32  61 SW5       29.91F
NEWCASTLE      FAIR      36  30  80 CALM      29.95S

$$
WYZ014>020-022>026-101>103-281500-
CENTRAL WYOMING

CITY           SKY/WX    TMP DP  RH WIND       PRES   REMARKS
BIG PINEY      FAIR      28  23  81 E3        30.18S
PINEDALE       PTSUNNY   27  27 100 W3        30.19S
DUBOIS         FAIR      37  28  70 NW14      30.08S WCI  29
LANDER         FAIR      47  26  44 S5        30.02F
RIVERTON       FAIR      46  29  51 SW10      30.04S
CASPER         FAIR      49  27  42 SW13      30.03S
DOUGLAS        FAIR      41  32  70 SE3       30.01F

$$
WYZ021-027>030-104>119-281500-
SOUTHERN WYOMING

CITY           SKY/WX    TMP DP  RH WIND       PRES   REMARKS
EVANSTON       FAIR      40  26  57 SW12      30.19F WCI  33
FORT BRIDGER   PTSUNNY   50  26  38 SW9       30.20F
ROCK SPRINGS   FAIR      43  27  53 CALM      30.18S
DIXON          FAIR      33  27  78 E3        30.24S
RAWLINS        FAIR      43  24  47 SW6       30.15F
SARATOGA       FAIR      36  27  69 SE3       30.19S
LARAMIE        FAIR      42  26  53 SW16      30.15S
CHEYENNE       FAIR      46  26  45 W9        30.09S
TORRINGTON     FAIR      38  26  62 CALM      29.99S
PINE BLUFFS    FAIR      43  30  61 W10       30.06S

$$



USA.gov is the U.S. government's official web portal to all federal, state and local government web resources and services.